Home   Weather   Tromsø   Past weeks

Flag for Norway Past Weather in Tromsø, Norway — Yesterday and Last 2 Weeks

Now
25 °F

Sunny.


Feels Like: 16 °F
Forecast: 22 / 29 °F
Wind: 8 mph from South

Location: Tromso / Langnes

Current Time: Dec 3, 2016 at 3:02:13 pm

Latest Report: Dec 3, 2016 at 2:00 pm


Visibility: 31 mi

Pressure: 30.02 "Hg

Humidity: 81%

Dew Point: 20 °F

Location of TromsøLocation

Past Weather in Tromsø — Graph

°F

Tromsø Temperature Yesterday

Maximum temperature yesterday: 28 °F (at 2:00 am)
Minimum temperature yesterday: 21 °F (at 2:00 pm)
Average temperature yesterday: 24 °F

High & Low Weather Summary for the Past Weeks

 TemperatureHumidityPressure
High41 °F (Nov 20, 9:00 am)95% (Nov 29, 1:00 am)30.05 "Hg (Nov 29, 1:00 am)
Low21 °F (Dec 2, 2:00 pm)52% (Dec 1, 8:00 pm)29.00 "Hg (Nov 30, 12:00 am)
Average33 °F79%29.60 "Hg
* Reported Nov 18 1:00 pm — Dec 3 1:00 pm, Tromsø, Weather by CustomWeather, © 2016

Note: Actual official high and low records may vary slightly from our data, if they occured in-between our weather recording intervals... More about our weather records

Advertising

Tromsø Weather History for the Previous 24 Hours

Scroll right to see more
 ConditionsComfort  
Time TempWeatherWind HumidityBarometerVisibility
1:00 pm
Sat, Dec 3
25 °FSunny.9 mph81%30.03 "Hg31 mi
12:00 pm25 °FPassing clouds.8 mph82%30.03 "Hg31 mi
11:00 am25 °FSunny.8 mph85%30.04 "Hg31 mi
10:00 am24 °FSunny.8 mph83%30.04 "Hg31 mi
9:00 am24 °FSunny.7 mph87%30.03 "Hg31 mi
8:00 am24 °FSunny.6 mph82%30.03 "Hg31 mi
7:00 am24 °FSunny.5 mph86%30.03 "Hg31 mi
6:00 am24 °FSunny.6 mph86%30.02 "Hg31 mi
5:00 am21 °FClear.5 mph84%30.02 "Hg31 mi
4:00 am22 °FClear.5 mph78%30.02 "Hg31 mi
3:00 am23 °FClear.5 mph85%30.02 "Hg31 mi
2:00 am24 °FClear.5 mph78%30.01 "Hg31 mi
1:00 am25 °FClear.6 mph84%30.01 "Hg31 mi
12:00 am22 °FPassing clouds.5 mph85%30.00 "Hg31 mi
11:00 pm
Fri, Dec 2
24 °FClear.2 mph83%30.00 "Hg31 mi
10:00 pm25 °FLight snow. Overcast.3 mph85%30.00 "Hg8 mi
9:00 pm24 °FOvercast.3 mph87%29.99 "Hg28 mi
8:00 pm22 °FOvercast.2 mph89%29.98 "Hg19 mi
7:00 pm22 °FPassing clouds.2 mph86%29.98 "Hg14 mi
6:00 pm22 °FSunny.2 mph87%29.97 "Hg22 mi
4:00 pm22 °FSunny.1 mph89%29.95 "Hg25 mi
3:00 pm24 °FSunny.2 mph92%29.94 "Hg22 mi
Weather by CustomWeather, © 2016

See weather overviewHow to use our weather pages